Dauntless Aviation
Airports Europe Germany
EDSW

Altdorf-Wallburg Airport

Altdorf, GERMANY

Airport Info
Suggest Updated Information for this Airport

Location

Latitude / Longitude: 48°16'12"N / 7°50'30"E
  48°16.2'N / 7°50.514'E
  48.2700 / 7.8419
Satellite photo at:
Airport distance calculator
From:
Weather Reports

METAR

EDTL
5.8nm NW
EDTL 200650Z VRB03KT CAVOK 15/09 Q1024
LFST
18.2nm NW
LFST 200630Z AUTO VRB01KT CAVOK 13/10 Q1024 NOSIG
LFGA
22.2nm SW
LFGA 200630Z AUTO 00000KT CAVOK 16/09 Q1024
EDSB
32.3nm N
EDSB 200620Z 22002KT CAVOK 12/09 Q1024

TAF

LFST
18.2nm NW
TAF LFST 200500Z 2006/2106 VRB03KT CAVOK
EDSB
32.3nm N
TAF EDSB 200500Z 2006/2106 VRB03KT CAVOK
Safelog

 

Dauntless Aviation

© 2007-2018 Dauntless Aviation, all rights reserved
Information provided via PilotNav comes from a variety of official and unofficial data sources. As errors are possible, do not use PilotNav for primary flight planning purposes. Verify any information that you receive via PilotNav with current and canonical charts and other official documents. The material in this database is subject to database copyrights held by Dauntless Aviation and may not be copied without the express permission of Dauntless Aviation - licenses for use of part of all of this data are available for purchase; enquire via the Dauntless Aviation helpdesk. A number of mechanisms and markers exist in the database to protect against and identify infringement / copyright. Automated queries against this website are stictly prohibited, and all activity is logged and analyzed.